DECAYED

STARLINK-2737, 48675 (Decayed)

Orbit data source: Space-Track

STARLINK-2737, 48675 was a payload satellite owned by SpaceX/Seattle (US) in LEO that was launched on Wed, 26 May 2021 UTC via an FALCON 9 launch vehicle from the Air Force Eastern Test Range (AFETR). Payload-class satellites include a variety of spacecraft equipped with specific instruments for various scientific and technological missions. These include communications satellites like Starlink; space stations such as the ISS; scientific satellites like the Hubble; Earth observation satellites from companies like Planet Labs, Umbra, and HawkEye 360; GPS; miniature CubeSats for education and research; and military/defense satellites.

Not visible in the next 10 days
Identifier
48675, 2021-044AP
Orbit
Decayed
Country
Flag of USUS
Related business
Manufacturer
SpaceX/Seattle
Mission
Decayed Commercial Communications
Bus & Motor
STARLINK, Unknown motor
Mass
260 kg wet, ~248 kg dry
Launch date (UTC)
2021-05-26 (5 years ago)
Launch vehicle
FALCON 9
Launch site
Air Force Eastern Test Range (AFETR)
Object type
Payload
Rocket body
Debris
Shape & HBR
Box + 1 Pan, 10.1 m
Radar Cross Section
13.562 m², Large (>1 m²)

Expand to show TLE details & history
Last TLE update: 1 year ago

TLE from 1 year ago
0 STARLINK-2737
1 48675U 21044AP  25031.69262378  .48090006  12202-4  66509-2 0  9991
2 48675  53.0379  97.4142 0000627 135.1849   5.5689 16.34372668204355
Epoch: 2025-01-31T16:37Z
TLE epoch observation values (Epoch: 2025-01-31T16:37:22.694Z)
Latitude
30.46404°
Longitude
-129.1915°
Altitude
182.169 km
Speed
7.801 km/s
True Right ascension
16h 45m 13s
True Declination
30° 18' 03"
Sunlit
Object was in daylight at epoch
Visualization orbit readout
Latitude
Unknown
Longitude
Unknown
Altitude
Unknown
Speed
Unknown
Apparent Right ascension
Unknown
Apparent Declination
Unknown
Sunlit
N/A
Visualization observer readout
Local Sidereal Time
21:35:11
Azimuth
Unknown
Elevation
Unknown
Doppler factor
Unknown
Orbital elements
Apogee altitude
181.514 km
Perigee altitude
180.692 km
Semi-major axis
6,559.24 km
Eccentricity
0.00006
Inclination
53.0379°
RAAN
97.4142°
Arg. of periapsis
135.1849°
True anomaly
5.5696°
Mean anomaly
5.5689°
Eccentric anomaly
5.56925°
Mean motion
4.08567 °/min
Orbital period
88.11 mins
BSTAR
0.0066509
Loading maneuver chart data...
Computing Atmospheric mass density...

Documentation

Showing up to 5 results
|